Weather History for K0J4 - July, 2013

Change the Weather History Date:

Saturday, July 27, 2013

  Actual Average (KCEW) Record (KCEW)
Temperature  
Mean Temperature 80 °F -  
Max Temperature 87 °F 92 °F 99 °F (1993)
Min Temperature 73 °F 71 °F 64 °F (2000)
Cooling Degree Days 15    
Growing Degree Days 30 (Base 50)    
Moisture  
Dew Point 72 °F    
Average Humidity 87    
Maximum Humidity 94    
Minimum Humidity 58    
Precipitation  
Precipitation 0.29 in - - ()
Sea Level Pressure  
Sea Level Pressure 29.98 in    
Wind  
Wind Speed 2 mph (SW)    
Max Wind Speed 10 mph    
Max Gust Speed 17 mph    
Visibility 6 miles    
Events Rain , Thunderstorm    
Averages and records for this station are not official NWS values.
T = Trace of Precipitation, MM = Missing Value Source: NWS Daily Summary

Daily Weather History Graph

Daily Weather History Graph

Search for Another Location

Airport or City:

Trip Planner

Search our weather history database for the weather conditions in past years. The results will help you decide how hot, cold, wet, or windy it might be!

Date:

Astronomy

Jul. 27, 2013 Rise Set
Actual Time 5:59 AM CDT 7:43 PM CDT
Civil Twilight 5:32 AM CDT 8:10 PM CDT
Nautical Twilight 5:00 AM CDT 8:42 PM CDT
Astronomical Twilight 4:27 AM CDT 9:15 PM CDT
Moon 10:59 PM CDT (7/27) 11:12 AM CDT (7/27)
Length of Visible Light 14h 37m
Length of Day
13h 44m
Waning Gibbous, 70% of the Moon is Illuminated
Jul 27
Waning Gibbous
Jul 29
Last Quarter
Aug 6
New
Aug 14
First Quarter
Aug 20
Full

Hourly Weather History & Observations

Time (CDT) Temp. Heat Index Dew Point Humidity Pressure Visibility Wind Dir Wind Speed Gust Speed Precip Events Conditions
12:58 AM 73.0 °F - 71.1 °F 93% 29.98 in 7.0 mi Calm Calm - N/A   Clear
1:58 AM 73.9 °F - 72.0 °F 93% 29.97 in 7.0 mi Calm Calm - N/A   Clear
2:58 AM 73.4 °F - 71.6 °F 94% 29.97 in 5.0 mi Calm Calm - N/A   Clear
3:58 AM 73.0 °F - 71.1 °F 93% 29.96 in 5.0 mi Calm Calm - N/A   Clear
4:58 AM 73.0 °F - 71.1 °F 93% 29.97 in 5.0 mi Calm Calm - N/A   Clear
5:58 AM 73.0 °F - 71.1 °F 93% 29.97 in 3.0 mi Calm Calm - N/A   Partly Cloudy
6:13 AM 73.4 °F - 71.6 °F 94% 29.99 in 2.5 mi Calm Calm - N/A   Partly Cloudy
6:39 AM 73.4 °F - 71.6 °F 94% 30.00 in 3.0 mi Calm Calm - N/A   Clear
6:58 AM 75.0 °F - 73.0 °F 94% 29.99 in 3.0 mi Calm Calm - N/A   Clear
7:08 AM 75.2 °F - 73.4 °F 94% 30.00 in 2.5 mi Calm Calm - N/A   Clear
7:22 AM 75.2 °F - 73.4 °F 94% 30.01 in 3.0 mi Calm Calm - N/A   Clear
7:58 AM 75.9 °F - 73.0 °F 91% 29.99 in 5.0 mi SSW 3.5 mph - N/A   Clear
8:58 AM 82.9 °F 90.2 °F 75.0 °F 77% 29.99 in 9.0 mi SW 3.5 mph - N/A   Clear
9:58 AM 86.0 °F 95.1 °F 75.0 °F 70% 29.98 in 10.0 mi SW 5.8 mph - N/A   Clear
10:58 AM 87.1 °F 94.5 °F 73.0 °F 63% 29.98 in 10.0 mi SW 5.8 mph - N/A   Scattered Clouds
11:45 AM 87.8 °F 93.8 °F 71.6 °F 58% 29.98 in 10.0 mi Calm Calm - N/A Thunderstorm Thunderstorm
11:58 AM 87.1 °F 94.5 °F 73.0 °F 63% 29.97 in 10.0 mi NW 4.6 mph - N/A Thunderstorm Thunderstorm
12:08 PM 80.6 °F 84.6 °F 71.6 °F 74% 29.99 in 1.2 mi WNW 10.4 mph 17.3 mph 0.12 in Thunderstorm Unknown
12:12 PM 75.2 °F - 69.8 °F 83% 30.00 in 0.5 mi NW 10.4 mph 17.3 mph 0.20 in Rain , Thunderstorm Heavy Thunderstorms and Rain
12:19 PM 73.4 °F - 66.2 °F 78% 30.00 in 1.0 mi NNE 4.6 mph - 0.26 in Rain , Thunderstorm Light Thunderstorms and Rain
12:25 PM 73.4 °F - 69.8 °F 88% 30.01 in 3.0 mi SW 3.5 mph - 0.26 in Thunderstorm Overcast
12:30 PM 75.2 °F - 71.6 °F 89% 30.01 in 4.0 mi SSW 6.9 mph - 0.26 in Thunderstorm Overcast
12:58 PM 75.0 °F - 71.1 °F 87% 29.99 in 9.0 mi SSE 5.8 mph - 0.26 in Thunderstorm Thunderstorm
1:52 PM 75.2 °F - 71.6 °F 89% 30.01 in 9.0 mi Variable 4.6 mph - N/A   Scattered Clouds
1:58 PM 75.0 °F - 71.1 °F 87% 29.99 in 6.0 mi Variable 4.6 mph - 0.00 in Rain Light Rain
2:17 PM 73.4 °F - 69.8 °F 88% 29.99 in 2.5 mi Calm Calm - 0.03 in   Overcast
2:26 PM 73.4 °F - 71.6 °F 94% 29.99 in 4.0 mi Calm Calm - 0.03 in Rain Light Rain
2:58 PM 75.9 °F - 72.0 °F 87% 29.97 in 10.0 mi Calm Calm - 0.03 in   Scattered Clouds
3:58 PM 75.9 °F - 71.1 °F 85% 29.95 in 10.0 mi SSE 3.5 mph - N/A   Scattered Clouds
4:58 PM 77.0 °F - 71.1 °F 82% 29.96 in 10.0 mi Calm Calm - N/A   Clear
5:58 PM 77.0 °F - 72.0 °F 84% 29.95 in 10.0 mi Calm Calm - N/A   Clear
6:58 PM 77.0 °F - 73.0 °F 88% 29.95 in 10.0 mi Calm Calm - N/A   Clear
7:58 PM 75.9 °F - 73.9 °F 94% 29.95 in 8.0 mi Calm Calm - N/A   Partly Cloudy
8:58 PM 75.9 °F - 73.0 °F 91% 29.96 in 7.0 mi Calm Calm - N/A   Scattered Clouds
9:58 PM 75.0 °F - 73.0 °F 94% 29.98 in 7.0 mi Calm Calm - N/A   Mostly Cloudy
10:58 PM 75.0 °F - 73.0 °F 94% 29.96 in 6.0 mi South 3.5 mph - N/A   Scattered Clouds
11:58 PM 75.0 °F - 73.0 °F 94% 29.96 in 8.0 mi South 3.5 mph - N/A   Overcast